Location: Hains Lake
(37.8540°N, 99.8578°W)
Time: 04:49:03
(UTC+00:00)

STARLINK 1059 - Pass Details

Date: 11 December 2019
Orbit: 476 x 478 km, 53.0° (Epoch: 24 January)

Event Time Altitude Azimuth Distance (km) Brightness Sun altitude
Exits shadow 12:51:19 13° 266° (W) 1,358 5.1 -10.4°
Maximum altitude 12:53:00 18° 232° (SW) 1,152 5.0 -10.1°
Drops below altitude 10° 12:55:22 10° 188° (S) 1,535 6.1 -9.6°
Sets 12:57:58 0° 169° (SSE) 2,406 7.4 -9.2°
